Starlink 34414

operational
NORAD ID: 64620 Int'l Des: 2025-137 Owner: SPXS Country: US Constellation: starlink
LEOCIRCULAR

About Starlink 34414

Description loading...

Live Position

Loading 3D Globe...

Upcoming Passes

Altitude History

Altitude vs Time

uPlot chart will show altitude changes over time

Two-Line Element Set

1 64620U 25137AC 26062.10371588 .00027672 00000-0 94272-3 0 9996
2 64620 53.1623 6.0276 0001174 69.7620 290.3507 15.30207544 39722
Epoch: Mar 3, 2026 • Age: 20 hours

Current Status

Altitude 475.2 km
Velocity 7.63 km/s
Sub-Earth Point 14.70°N, 63.14°E
Launch Date Jun 25, 2025
Age 0.6 years
Type internet

Technical Details

Classification Payload
Mass 575.00 kg
Dry Mass 530.00 kg
Total Mass 575.00 kg
Length 0.30 m
Diameter 4.10 m
Span 29.00 m
Shape Box + pan
Manufacturer SPXS
Bus Type Starlink V2MO
Phase Status In Orbit
Owner/State SPXS/US

Large Constellations

Loading constellations...